Location: Cox Branch
(32.0302°N, 97.6717°W)
Time: 23:18:53
(UTC+00:00)

Daily predictions for brighter satellites

Satellite Brightness Start Highest point End
(mag) Time Altitude Azimuth Time Altitude Azimuth Time Altitude Azimuth
Cosmos 2084 4.5 12:04:21 23° WSW 12:04:21 23° WSW 12:07:29 10° SSW
Cosmos 2369 3.9 12:00:07 10° SW 12:05:35 49° WNW 12:11:04 10° N
Aurora 2 Rocket 4.1 12:02:31 19° WSW 12:05:56 40° S 12:12:29 10° ESE
Cosmos 1400 Rocket 2.6 12:03:25 10° SSW 12:07:08 62° W 12:10:55 10° N
Cosmos 773 Rocket 4.4 12:05:57 10° NNW 12:10:47 40° W 12:15:33 10° S
Cosmos 1782 Rocket 3.5 12:06:56 10° S 12:11:19 83° W 12:15:44 10° N
Cosmos 1908 Rocket 4.1 12:07:41 10° SSW 12:11:39 35° W 12:15:40 10° NNW
SL-16 R/B 2.5 12:08:29 10° S 12:14:05 70° ESE 12:19:43 10° NNE
Cosmos 1812 1.9 12:13:28 18° SW 12:14:53 36° W 12:17:08 10° NNW
Cosmos 2208 Rocket 4.5 12:10:12 10° NNW 12:15:14 40° W 12:20:16 10° S
CZ-4 R/B 4.1 12:12:06 10° N 12:16:53 49° WNW 12:21:36 10° SSW
IGS 5A 3.2 12:14:02 10° N 12:18:00 85° WNW 12:21:57 10° SSW
Cosmos 372 Rocket 3.8 12:18:53 10° SSW 12:23:56 80° WNW 12:29:02 10° NNE
Cosmos 2333 Rocket 2.7 12:20:28 10° S 12:26:10 68° ESE 12:31:53 10° NNE
Cosmos 2227 Rocket 3.0 12:21:26 10° NW 12:26:16 29° WSW 12:31:04 10° SSW
Cosmos 1898 Rocket 3.5 12:28:11 10° SSW 12:33:27 86° WNW 12:38:47 10° NNE
Cosmos 1869 3.4 12:30:20 10° SSW 12:33:42 41° W 12:37:03 10° N
Hubble Space Telescope 3.4 12:32:19 10° S 12:33:43 12° SSE 12:35:06 10° SE
DELTA 2 R/B (1) 3.7 12:30:49 10° WSW 12:36:21 79° SSE 12:41:56 10° ENE
Cosmos 2221 Rocket 4.3 12:33:17 10° NNW 12:37:18 32° W 12:41:17 10° SSW
Cosmos 2173 Rocket 4.1 12:33:43 10° S 12:40:04 84° W 12:46:28 10° N
BREEZE-M DEB (TANK) 2.2 12:37:59 10° SW 12:40:13 75° NW 12:44:36 10° NE
Cosmos 1025 Rocket 4.3 12:37:21 10° NW 12:40:35 21° W 12:43:48 10° SW
Cosmos 2322 Rocket 2.7 12:38:57 10° S 12:44:35 69° ESE 12:50:13 10° NNE
Cosmos 1937 Rocket 3.5 12:41:31 10° SSW 12:46:39 90° NNE 12:51:50 10° NNE
Cosmos 1346 Rocket 2.7 12:43:25 10° N 12:47:06 79° E 12:50:45 10° S
SL-4 R/B 1.9 12:43:31 10° NW 12:47:11 74° NE 12:51:00 10° SE
NOSS 3-1 (A) 3.9 12:44:15 10° WSW 12:47:53 23° NW 12:51:57 10° N
DMSP B5D1-3 4.5 12:42:56 10° S 12:47:57 76° WSW 12:53:01 10° NNW
Cosmos 1980 Rocket 4.0 12:47:23 10° WNW 12:48:09 10° NW 12:48:55 10° NW
BREEZE-M DEB (TANK) 2.3 12:45:56 10° WSW 12:48:30 69° NW 12:54:58 10° NE
Cosmos 2219 Rocket 4.1 12:43:55 10° S 12:49:01 36° ESE 12:54:07 10° NE
COSMO-SKYMED 1 3.1 12:45:43 10° SSW 12:49:27 34° W 12:53:12 10° NNW
USA 215 4.2 12:44:21 10° ESE 12:50:33 46° NE 12:56:46 10° NNW
Cosmos 2100 Rocket 4.1 12:46:48 10° SSW 12:53:04 62° W 12:59:22 10° N
